Location: Pasadena
(34.1478°N, 118.1436°W)
Time: 03:08:50
(UTC-08:00)

ISS - Pass Details

Date: 26 January 2019
Orbit: 403 x 411 km, 51.6° (Epoch: 22 February)

Event Time Altitude Azimuth Distance (km) Brightness Sun altitude
Rises 17:51:25 0° 269° (W) 2,322 1.8 -7.6°
Reaches altitude 10° 17:54:14 10° 296° (WNW) 1,467 -0.3 -8.1°
Maximum altitude 17:56:05 14° 331° (NNW) 1,246 -1.2 -8.5°
Drops below altitude 10° 17:57:57 10° 5° (N) 1,474 -1.2 -8.9°
Enters shadow 17:59:44 - 25° (NNE) 1,975 -0.7 -9.2°
